ITY9001 LIRF-EDDM

Flight info

Callsign ITY9001
Flight time N/A
Altitude 40000
Route SOSIV5AXSOVAN1E/25 SOVAN DCT AMTEL DCT NAXAV DCT SOTOV/N0423F240 T101 BETOS BETOS1B
Aircraft A359/H-SDE2E3GHIJ3J4J5LM1ORWXY/LB1D1

Departure

Time N/A
Airport Rome–Fiumicino Leonardo da Vinci International Airport (LIRF)

Arrival

Time 2026-05-03 21:12
Airport Munich Airport (EDDM)
Time Latitude Longitude Altitude Speed Heading
2026-05-03 20:15 42.49105 11.96464 33376 ft 453 kts 349°
2026-05-03 20:15 42.52250 11.95970 33873 ft 456 kts 349°
2026-05-03 20:15 42.55415 11.95474 34310 ft 460 kts 349°
2026-05-03 20:15 42.58603 11.94972 34694 ft 463 kts 349°
2026-05-03 20:16 42.61805 11.94468 35077 ft 465 kts 349°
2026-05-03 20:16 42.65027 11.93960 35504 ft 466 kts 349°
2026-05-03 20:16 42.68198 11.93462 36049 ft 464 kts 349°
2026-05-03 20:16 42.71396 11.92960 36597 ft 462 kts 349°
2026-05-03 20:17 42.74589 11.92458 37106 ft 461 kts 349°
2026-05-03 20:17 42.77769 11.91955 37612 ft 460 kts 349°
2026-05-03 20:17 42.80940 11.91453 38086 ft 458 kts 349°
2026-05-03 20:17 42.84099 11.90952 38577 ft 456 kts 349°
2026-05-03 20:18 42.87249 11.90452 39021 ft 455 kts 349°
2026-05-03 20:18 42.90355 11.89959 39326 ft 456 kts 349°
2026-05-03 20:18 42.93503 11.89456 39595 ft 457 kts 349°
2026-05-03 20:18 42.96660 11.88952 39871 ft 458 kts 349°
2026-05-03 20:19 42.99833 11.88445 40114 ft 460 kts 349°
2026-05-03 20:19 43.06189 11.87431 40163 ft 459 kts 349°
2026-05-03 20:20 43.12529 11.86418 40164 ft 459 kts 349°
2026-05-03 20:20 43.18835 11.85407 40162 ft 459 kts 349°
2026-05-03 20:21 43.25180 11.84388 40165 ft 460 kts 349°
2026-05-03 20:21 43.31540 11.83364 40165 ft 460 kts 349°
2026-05-03 20:22 43.37901 11.82338 40164 ft 460 kts 349°
2026-05-03 20:22 43.44259 11.81310 40168 ft 460 kts 349°
2026-05-03 20:23 43.50580 11.80285 40162 ft 461 kts 349°
2026-05-03 20:23 43.56952 11.79251 40165 ft 461 kts 349°
2026-05-03 20:24 43.63323 11.78215 40166 ft 461 kts 349°
2026-05-03 20:24 43.69709 11.77172 40163 ft 463 kts 349°
2026-05-03 20:25 43.76059 11.76136 40160 ft 462 kts 349°
2026-05-03 20:25 43.82451 11.75090 40168 ft 462 kts 350°
2026-05-03 20:26 43.88847 11.74040 40152 ft 463 kts 350°
2026-05-03 20:26 43.95254 11.72986 40144 ft 464 kts 350°
2026-05-03 20:27 44.01619 11.71936 40155 ft 464 kts 350°
2026-05-03 20:27 44.08033 11.70878 40143 ft 464 kts 350°
2026-05-03 20:28 44.14444 11.69819 40145 ft 464 kts 350°
2026-05-03 20:28 44.20858 11.68754 40151 ft 464 kts 350°
2026-05-03 20:29 44.27227 11.67693 40149 ft 464 kts 350°
2026-05-03 20:29 44.33644 11.66628 40153 ft 465 kts 349°
2026-05-03 20:30 44.40075 11.65552 40148 ft 466 kts 349°
2026-05-03 20:30 44.46508 11.64475 40125 ft 465 kts 349°
2026-05-03 20:31 44.52943 11.63395 40119 ft 465 kts 349°
2026-05-03 20:31 44.59326 11.62322 40118 ft 465 kts 349°
2026-05-03 20:32 44.65757 11.61239 40114 ft 465 kts 349°
2026-05-03 20:32 44.72175 11.60155 40117 ft 465 kts 349°
2026-05-03 20:33 44.78601 11.59067 40136 ft 465 kts 349°
2026-05-03 20:33 44.84975 11.57986 40138 ft 465 kts 349°
2026-05-03 20:34 44.91395 11.56895 40132 ft 465 kts 349°
2026-05-03 20:34 44.97815 11.55801 40132 ft 465 kts 349°
2026-05-03 20:35 45.04233 11.54705 40126 ft 465 kts 349°
2026-05-03 20:35 45.10620 11.53612 40124 ft 466 kts 349°
2026-05-03 20:36 45.17058 11.52507 40120 ft 466 kts 349°
2026-05-03 20:36 45.23504 11.51400 40117 ft 467 kts 349°
2026-05-03 20:37 45.29953 11.50289 40107 ft 467 kts 349°
2026-05-03 20:37 45.36349 11.49184 40106 ft 467 kts 349°
2026-05-03 20:38 45.42798 11.48067 40105 ft 467 kts 349°
2026-05-03 20:38 45.49146 11.46966 40098 ft 468 kts 349°
2026-05-03 20:39 45.55612 11.45842 40093 ft 468 kts 349°
2026-05-03 20:39 45.62078 11.44716 40102 ft 468 kts 349°
2026-05-03 20:40 45.68508 11.43591 40112 ft 469 kts 349°
2026-05-03 20:40 45.74990 11.42456 40116 ft 469 kts 349°
2026-05-03 20:41 45.81478 11.41317 40137 ft 470 kts 349°
2026-05-03 20:41 45.87974 11.40174 40165 ft 470 kts 349°
2026-05-03 20:42 45.94457 11.39032 40176 ft 469 kts 349°
2026-05-03 20:42 46.00897 11.37893 40176 ft 469 kts 349°
2026-05-03 20:43 46.07391 11.36741 40168 ft 471 kts 349°
2026-05-03 20:43 46.13899 11.35583 40172 ft 471 kts 349°
2026-05-03 20:44 46.20410 11.34425 40163 ft 471 kts 349°
2026-05-03 20:44 46.26857 11.33278 40143 ft 471 kts 349°
2026-05-03 20:45 46.33377 11.32111 40144 ft 472 kts 349°
2026-05-03 20:45 46.39886 11.30944 40143 ft 471 kts 349°
2026-05-03 20:46 46.46412 11.29769 40049 ft 474 kts 349°
2026-05-03 20:46 46.52978 11.28586 40048 ft 476 kts 349°
2026-05-03 20:47 46.59503 11.27407 40059 ft 476 kts 349°
2026-05-03 20:47 46.66072 11.26219 40079 ft 476 kts 350°
2026-05-03 20:48 46.72651 11.25026 40107 ft 477 kts 350°
2026-05-03 20:48 46.79235 11.23828 40116 ft 477 kts 350°
2026-05-03 20:49 46.85777 11.22634 40098 ft 477 kts 350°
2026-05-03 20:49 46.92360 11.21445 39755 ft 475 kts 351°
2026-05-03 20:49 46.95677 11.21246 38955 ft 480 kts 358°
2026-05-03 20:50 46.99027 11.21347 38054 ft 482 kts 359°
2026-05-03 20:50 47.02369 11.21531 37305 ft 480 kts
2026-05-03 20:50 47.05700 11.21757 36559 ft 479 kts
2026-05-03 20:50 47.08984 11.21991 35777 ft 479 kts
2026-05-03 20:51 47.12313 11.22230 34985 ft 480 kts
2026-05-03 20:51 47.15650 11.22466 34127 ft 482 kts
2026-05-03 20:51 47.19012 11.22699 33066 ft 485 kts
2026-05-03 20:51 47.22393 11.22929 32058 ft 487 kts
2026-05-03 20:52 47.25787 11.23159 31034 ft 489 kts
2026-05-03 20:52 47.29197 11.23389 30084 ft 491 kts
2026-05-03 20:52 47.32498 11.23614 29274 ft 486 kts
2026-05-03 20:52 47.35881 11.23850 28477 ft 482 kts
2026-05-03 20:53 47.39207 11.24081 27736 ft 477 kts
2026-05-03 20:53 47.42511 11.24310 26969 ft 473 kts
2026-05-03 20:53 47.45784 11.24534 26225 ft 469 kts
2026-05-03 20:53 47.49027 11.24753 25493 ft 465 kts
2026-05-03 20:54 47.51986 11.24954 24827 ft 461 kts
2026-05-03 20:54 47.58338 11.25311 23338 ft 452 kts 359°
2026-05-03 20:54 47.61463 11.25309 22550 ft 446 kts 357°
2026-05-03 20:55 47.64551 11.25247 21828 ft 441 kts 357°
2026-05-03 20:55 47.67600 11.25175 21100 ft 436 kts 357°
2026-05-03 20:55 47.70581 11.25120 20382 ft 432 kts 358°
2026-05-03 20:55 47.73566 11.25537 19644 ft 431 kts 10°
2026-05-03 20:56 47.76463 11.26658 18897 ft 429 kts 15°
2026-05-03 20:56 47.79294 11.28041 18131 ft 427 kts 18°
2026-05-03 20:56 47.82066 11.29555 17327 ft 422 kts 20°
2026-05-03 20:56 47.84793 11.31117 16575 ft 418 kts 20°
2026-05-03 20:57 47.87520 11.32591 15808 ft 414 kts 15°
2026-05-03 20:57 47.90333 11.33359 15081 ft 411 kts
2026-05-03 20:57 47.93183 11.33731 14398 ft 408 kts
2026-05-03 20:57 47.95908 11.34009 14225 ft 386 kts
2026-05-03 20:58 47.98462 11.34254 14093 ft 354 kts
2026-05-03 20:58 48.00878 11.34476 13979 ft 341 kts
2026-05-03 20:58 48.03232 11.34775 13675 ft 342 kts
2026-05-03 20:58 48.05472 11.35921 13136 ft 341 kts 30°
2026-05-03 20:59 48.07242 11.38210 12740 ft 342 kts 54°
2026-05-03 20:59 48.08386 11.41336 12632 ft 348 kts 71°
2026-05-03 20:59 48.09224 11.44721 12366 ft 343 kts 73°
2026-05-03 20:59 48.10020 11.48086 11782 ft 342 kts 73°
2026-05-03 21:00 48.10804 11.51391 11377 ft 343 kts 72°
2026-05-03 21:00 48.11346 11.53661 11177 ft 339 kts 72°
2026-05-03 21:00 48.12373 11.57940 10885 ft 321 kts 72°
2026-05-03 21:00 48.13071 11.60845 10651 ft 300 kts 72°
2026-05-03 21:01 48.13767 11.63742 10314 ft 293 kts 72°
2026-05-03 21:01 48.14448 11.66589 9973 ft 290 kts 72°
2026-05-03 21:01 48.15125 11.69422 9515 ft 288 kts 72°
2026-05-03 21:01 48.15796 11.72233 9200 ft 286 kts 72°
2026-05-03 21:02 48.16457 11.75003 8933 ft 286 kts 72°
2026-05-03 21:02 48.17125 11.77800 8665 ft 285 kts 71°
2026-05-03 21:02 48.17797 11.80585 8394 ft 284 kts 70°
2026-05-03 21:02 48.18662 11.83236 8129 ft 284 kts 61°
2026-05-03 21:03 48.19664 11.85780 7900 ft 283 kts 60°
2026-05-03 21:03 48.20675 11.88297 7670 ft 282 kts 60°
2026-05-03 21:03 48.21678 11.90808 7395 ft 278 kts 59°
2026-05-03 21:03 48.22666 11.93287 6988 ft 277 kts 59°
2026-05-03 21:04 48.23552 11.95516 6710 ft 277 kts 59°
2026-05-03 21:04 48.24537 11.98000 6466 ft 277 kts 59°
2026-05-03 21:04 48.25520 12.00482 6224 ft 276 kts 58°
2026-05-03 21:04 48.26503 12.02966 5935 ft 277 kts 58°
2026-05-03 21:05 48.27471 12.05411 5621 ft 274 kts 58°
2026-05-03 21:05 48.28407 12.07784 5486 ft 251 kts 58°
2026-05-03 21:05 48.29295 12.09916 5343 ft 232 kts 51°
2026-05-03 21:05 48.30454 12.11455 5255 ft 216 kts 26°
2026-05-03 21:06 48.31844 12.12017 5161 ft 201 kts
2026-05-03 21:06 48.33148 12.11656 5053 ft 184 kts 337°
2026-05-03 21:06 48.34185 12.10675 4980 ft 168 kts 319°
2026-05-03 21:06 48.35023 12.09594 4966 ft 150 kts 316°
2026-05-03 21:07 48.35767 12.08589 4970 ft 143 kts 315°
2026-05-03 21:07 48.36318 12.07325 4972 ft 154 kts 288°
2026-05-03 21:07 48.36428 12.05624 4823 ft 171 kts 267°
2026-05-03 21:07 48.36286 12.03829 4548 ft 173 kts 263°
2026-05-03 21:08 48.36129 12.02036 4278 ft 172 kts 265°
2026-05-03 21:08 48.36010 12.00442 4062 ft 171 kts 265°
2026-05-03 21:08 48.35877 11.98678 3839 ft 169 kts 265°
2026-05-03 21:08 48.35741 11.96937 3614 ft 165 kts 265°
2026-05-03 21:09 48.35613 11.95282 3408 ft 153 kts 265°
2026-05-03 21:09 48.35496 11.93779 3209 ft 139 kts 266°
2026-05-03 21:09 48.35390 11.92401 3031 ft 127 kts 266°
2026-05-03 21:09 48.35288 11.91090 2730 ft 126 kts 266°
2026-05-03 21:10 48.35199 11.89831 2506 ft 119 kts 267°
2026-05-03 21:10 48.35105 11.88601 2348 ft 118 kts 266°
2026-05-03 21:10 48.35004 11.87361 2188 ft 120 kts 263°
2026-05-03 21:10 48.34914 11.86139 2146 ft 121 kts 260°
2026-05-03 21:11 48.34804 11.84814 2078 ft 130 kts 258°
2026-05-03 21:11 48.34686 11.83490 1904 ft 125 kts 263°
2026-05-03 21:11 48.34609 11.82189 1716 ft 125 kts 262°
2026-05-03 21:11 48.34506 11.80905 1590 ft 124 kts 265°
2026-05-03 21:12 48.34407 11.79642 1497 ft 121 kts 264°
2026-05-03 21:12 48.34334 11.78599 1478 ft 66 kts 262°
2026-05-03 21:12 48.34306 11.78119 1487 ft 47 kts 274°
2026-05-03 21:12 48.34346 11.77891 1479 ft 19 kts 291°
2026-05-03 21:13 48.34385 11.77754 1481 ft 21 kts 293°
2026-05-03 21:13 48.34444 11.77546 1479 ft 22 kts 293°
2026-05-03 21:13 48.34494 11.77370 1476 ft 12 kts 293°
2026-05-03 21:13 48.34503 11.77244 1483 ft 14 kts 266°
2026-05-03 21:14 48.34493 11.77083 1482 ft 18 kts 263°
2026-05-03 21:14 48.34477 11.76880 1479 ft 21 kts 261°
2026-05-03 21:14 48.34478 11.76728 1486 ft 8 kts 302°
2026-05-03 21:14 48.34536 11.76692 1479 ft 11 kts 349°
2026-05-03 21:15 48.34626 11.76673 1487 ft 15 kts 353°
2026-05-03 21:15 48.34728 11.76625 1483 ft 15 kts 302°
2026-05-03 21:15 48.34730 11.76448 1486 ft 19 kts 264°
2026-05-03 21:15 48.34714 11.76236 1483 ft 22 kts 264°
2026-05-03 21:16 48.34697 11.76008 1481 ft 23 kts 262°
2026-05-03 21:16 48.34681 11.75810 1477 ft 11 kts 263°
2026-05-03 21:16 48.34672 11.75692 1492 ft 8 kts 263°
2026-05-03 21:16 48.34664 11.75638 1480 ft 2 kts 233°
2026-05-03 21:17 48.34635 11.75629 1479 ft 12 kts 187°
2026-05-03 21:17 48.34615 11.75628 1479 ft 4 kts 180°
2026-05-03 21:17 48.34582 11.75632 1478 ft 4 kts 175°
2026-05-03 21:17 48.34580 11.75632 1489 ft 0 kts 175°